QPF
0.00 0.00 0.00 0.00 0.00 0.00 0.00 0.01 0.02 0.04 0.05 0.05 0.05 0.05 0.07 0.06 0.03 0.02 0.02 0.03 0.05 0.07 0.09 0.09 0.06 0.05 0.06 0.05 0.02 0.00 0.00 0.00 0.00 0.00 0.00 0.00 0.00 0.00 0.01 0.04 0.07 0.13 0.04
0.00 0.00 0.00 0.00 0.00 0.00 0.00 0.01 0.02 0.03 0.05 0.06 0.07 0.08 0.09 0.05 0.03 0.02 0.02 0.03 0.05 0.08 0.09 0.09 0.07 0.06 0.07 0.04 0.01 0.00 0.00 0.00 0.00 0.00 0.00 0.00 0.02 0.00 0.00 0.01 0.05 0.17 0.09
0.00 0.00 0.00 0.00 0.00 0.00 0.01 0.02 0.02 0.02 0.03 0.05 0.05 0.06 0.04 0.03 0.02 0.02 0.02 0.03 0.04 0.05 0.05 0.03 0.02 0.02 0.02 0.01 0.00 0.00 0.00 0.00 0.00 0.00 0.01 0.04 0.10 0.01 0.00 0.00 0.02 0.05 0.07
0.00 0.00 0.00 0.00 0.00 0.00 0.00 0.02 0.04 0.03 0.02 0.03 0.03 0.03 0.02 0.02 0.02 0.02 0.03 0.04 0.04 0.03 0.02 0.01 0.01 0.01 0.01 0.00 0.00 0.00 0.00 0.00 0.00 0.00 0.02 0.04 0.12 0.05 0.02 0.01 0.01 0.01 0.04
0.00 0.00 0.01 0.01 0.01 0.00 0.00 0.01 0.02 0.03 0.03 0.02 0.02 0.02 0.03 0.03 0.03 0.02 0.03 0.04 0.03 0.03 0.04 0.04 0.03 0.01 0.00 0.00 0.00 0.00 0.00 0.00 0.00 0.01 0.04 0.04 0.09 0.08 0.04 0.03 0.04 0.02 0.03
0.00 0.00 0.00 0.01 0.01 0.01 0.01 0.02 0.02 0.02 0.03 0.03 0.03 0.03 0.04 0.04 0.04 0.02 0.02 0.03 0.03 0.03 0.05 0.08 0.06 0.02 0.01 0.00 0.00 0.00 0.00 0.00 0.01 0.04 0.04 0.05 0.05 0.02 0.02 0.03 0.02 0.01 0.01
0.00 0.00 0.00 0.01 0.01 0.02 0.02 0.04 0.04 0.02 0.03 0.04 0.03 0.03 0.02 0.04 0.04 0.04 0.03 0.01 0.02 0.05 0.08 0.07 0.03 0.01 0.00 0.00 0.01 0.01 0.01 0.00 0.01 0.03 0.03 0.08 0.12 0.03 0.01 0.02 0.03 0.01 0.00
0.00 0.00 0.00 0.00 0.01 0.03 0.04 0.04 0.06 0.05 0.04 0.04 0.03 0.03 0.04 0.04 0.04 0.06 0.03 0.01 0.01 0.05 0.07 0.03 0.00 0.00 0.00 0.00 0.01 0.01 0.01 0.00 0.00 0.01 0.02 0.12 0.16 0.07 0.03 0.02 0.03 0.01 0.00
0.00 0.00 0.00 0.00 0.01 0.02 0.03 0.02 0.04 0.06 0.04 0.03 0.03 0.06 0.08 0.10 0.10 0.10 0.06 0.04 0.04 0.05 0.03 0.00 0.00 0.00 0.00 0.00 0.00 0.00 0.00 0.00 0.01 0.01 0.02 0.09 0.15 0.06 0.01 0.01 0.00 0.00 0.00
0.00 0.00 0.00 0.00 0.02 0.02 0.01 0.01 0.02 0.03 0.04 0.02 0.03 0.06 0.09 0.10 0.09 0.08 0.05 0.03 0.02 0.02 0.01 0.00 0.00 0.00 0.00 0.00 0.00 0.00 0.00 0.00 0.00 0.00 0.01 0.02 0.03 0.01 0.00 0.00 0.00 0.00 0.00
0.00 0.00 0.00 0.00 0.04 0.04 0.01 0.00 0.00 0.00 0.01 0.01 0.02 0.03 0.05 0.15 0.18 0.14 0.08 0.03 0.01 0.01 0.01 0.00 0.00 0.00 0.00 0.00 0.00 0.00 0.00 0.00 0.00 0.00 0.00 0.00 0.00 0.00 0.00 0.00 0.00 0.00 0.00
0.00 0.00 0.00 0.00 0.01 0.04 0.01 0.00 0.00 0.00 0.01 0.02 0.05 0.04 0.11 0.19 0.18 0.11 0.05 0.03 0.02 0.01 0.00 0.00 0.00 0.00 0.00 0.00 0.00 0.00 0.00 0.00 0.00 0.00 0.00 0.00 0.00 0.00 0.00 0.00 0.00 0.00 0.00
0.00 0.00 0.00 0.00 0.01 0.05 0.01 0.00 0.00 0.01 0.03 0.05 0.07 0.08 0.11 0.09 0.07 0.06 0.05 0.04 0.02 0.01 0.00 0.00 0.00 0.00 0.00 0.00 0.00 0.00 0.00 0.00 0.00 0.00 0.00 0.00 0.00 0.00 0.00 0.00 0.00 0.00 0.00
0.00 0.00 0.00 0.00 0.00 0.00 0.00 0.00 0.00 0.00 0.01 0.05 0.07 0.03 0.05 0.06 0.05 0.02 0.04 0.03 0.01 0.01 0.00 0.00 0.00 0.00 0.00 0.00 0.00 0.00 0.00 0.00 0.00 0.00 0.00 0.00 0.00 0.00 0.00 0.00 0.00 0.00 0.00
0.00 0.00 0.00 0.00 0.00 0.00 0.00 0.00 0.00 0.00 0.00 0.01 0.01 0.01 0.01 0.05 0.05 0.02 0.01 0.00 0.00 0.00 0.00 0.00 0.00 0.00 0.00 0.00 0.00 0.00 0.00 0.00 0.00 0.00 0.00 0.00 0.00 0.00 0.00 0.00 0.00 0.00 0.00
0.00 0.00 0.00 0.00 0.00 0.00 0.00 0.00 0.00 0.00 0.00 0.00 0.00 0.01 0.02 0.06 0.08 0.06 0.04 0.04 0.02 0.00 0.00 0.00 0.00 0.00 0.00 0.00 0.00 0.00 0.00 0.00 0.00 0.00 0.00 0.00 0.00 0.00 0.00 0.00 0.00 0.00 0.00
0.00 0.00 0.00 0.00 0.00 0.00 0.00 0.00 0.00 0.00 0.00 0.00 0.01 0.02 0.03 0.04 0.07 0.07 0.08 0.07 0.02 0.00 0.00 0.00 0.00 0.00 0.00 0.00 0.00 0.00 0.00 0.00 0.00 0.00 0.00 0.00 0.01 0.01 0.00 0.00 0.00 0.00 0.00
0.00 0.00 0.00 0.00 0.00 0.00 0.00 0.00 0.01 0.02 0.02 0.02 0.01 0.01 0.01 0.01 0.01 0.01 0.03 0.03 0.01 0.00 0.00 0.00 0.00 0.00 0.00 0.00 0.00 0.00 0.00 0.00 0.00 0.00 0.00 0.00 0.00 0.00 0.00 0.00 0.00 0.00 0.01
0.00 0.00 0.00 0.00 0.00 0.00 0.01 0.03 0.04 0.02 0.02 0.01 0.01 0.01 0.00 0.00 0.00 0.00 0.01 0.01 0.00 0.00 0.00 0.00 0.00 0.00 0.00 0.00 0.00 0.00 0.00 0.00 0.00 0.00 0.00 0.00 0.00 0.00 0.00 0.00 0.00 0.01 0.01
0.00 0.00 0.00 0.00 0.00 0.00 0.01 0.01 0.01 0.01 0.01 0.00 0.00 0.00 0.00 0.00 0.00 0.00 0.00 0.00 0.00 0.00 0.00 0.00 0.00 0.00 0.00 0.00 0.00 0.00 0.00 0.00 0.00 0.00 0.00 0.00 0.00 0.00 0.00 0.00 0.00 0.01 0.02
0.00 0.00 0.00 0.00 0.00 0.00 0.01 0.02 0.01 0.00 0.00 0.00 0.00 0.00 0.00 0.00 0.00 0.00 0.00 0.00 0.00 0.00 0.00 0.00 0.00 0.00 0.00 0.00 0.00 0.00 0.00 0.00 0.00 0.00 0.00 0.00 0.00 0.00 0.00 0.00 0.00 0.00 0.01
0.00 0.00 0.00 0.00 0.00 0.01 0.02 0.02 0.01 0.00 0.00 0.00 0.00 0.00 0.00 0.00 0.00 0.00 0.00 0.00 0.00 0.00 0.00 0.00 0.00 0.00 0.00 0.00 0.00 0.00 0.00 0.00 0.00 0.00 0.00 0.00 0.00 0.00 0.00 0.00 0.00 0.00 0.00
0.00 0.01 0.01 0.01 0.02 0.03 0.02 0.01 0.01 0.01 0.00 0.00 0.00 0.00 0.00 0.00 0.00 0.00 0.00 0.00 0.00 0.00 0.00 0.00 0.00 0.00 0.00 0.00 0.00 0.00 0.00 0.00 0.00 0.00 0.00 0.00 0.00 0.00 0.00 0.00 0.00 0.00 0.00
0.01 0.01 0.03 0.04 0.04 0.03 0.02 0.02 0.02 0.02 0.01 0.02 0.01 0.00 0.00 0.00 0.00 0.00 0.00 0.00 0.00 0.00 0.00 0.00 0.00 0.00 0.00 0.00 0.00 0.00 0.00 0.00 0.00 0.00 0.00 0.00 0.00 0.00 0.00 0.00 0.00 0.00 0.00
0.06 0.03 0.04 0.04 0.04 0.04 0.05 0.03 0.03 0.04 0.04 0.03 0.01 0.00 0.00 0.00 0.00 0.00 0.00 0.00 0.00 0.00 0.00 0.00 0.00 0.00 0.00 0.00 0.00 0.00 0.00 0.00 0.00 0.00 0.00 0.00 0.00 0.00 0.00 0.00 0.00 0.00 0.00
0.11 0.05 0.05 0.06 0.07 0.08 0.09 0.08 0.07 0.07 0.04 0.02 0.01 0.00 0.00 0.00 0.00 0.00 0.00 0.00 0.00 0.00 0.00 0.00 0.00 0.00 0.00 0.00 0.00 0.00 0.00 0.00 0.00 0.00 0.00 0.00 0.00 0.00 0.00 0.00 0.00 0.00 0.00
MSLP
1010.41 1010.59 1010.97 1011.48 1012.06 1012.62 1013.08 1013.42 1013.64 1013.79 1013.91 1014.08 1014.33 1014.66 1015.04 1015.44 1015.81 1016.11 1016.32 1016.44 1016.52 1016.58 1016.67 1016.79 1016.94 1017.12 1017.28 1017.39 1017.43 1017.41 1017.33 1017.24 1017.16 1017.13 1017.17 1017.27 1017.42 1017.57 1017.72 1017.84 1017.93 1018.00 1018.08
1010.45 1010.73 1011.19 1011.78 1012.40 1012.96 1013.40 1013.70 1013.87 1013.96 1014.05 1014.20 1014.44 1014.79 1015.20 1015.64 1016.03 1016.35 1016.56 1016.68 1016.74 1016.78 1016.85 1016.96 1017.11 1017.27 1017.42 1017.50 1017.51 1017.44 1017.31 1017.17 1017.06 1017.01 1017.04 1017.16 1017.33 1017.52 1017.70 1017.84 1017.94 1018.02 1018.09
1010.41 1010.78 1011.32 1011.97 1012.62 1013.20 1013.64 1013.91 1014.05 1014.11 1014.17 1014.31 1014.55 1014.90 1015.32 1015.75 1016.14 1016.44 1016.63 1016.73 1016.78 1016.82 1016.89 1017.02 1017.18 1017.36 1017.50 1017.56 1017.54 1017.42 1017.25 1017.06 1016.91 1016.84 1016.88 1017.01 1017.20 1017.43 1017.64 1017.81 1017.93 1018.02 1018.09
1010.29 1010.75 1011.36 1012.06 1012.75 1013.34 1013.78 1014.05 1014.19 1014.25 1014.31 1014.45 1014.69 1015.03 1015.42 1015.83 1016.18 1016.43 1016.59 1016.67 1016.71 1016.77 1016.87 1017.03 1017.22 1017.42 1017.57 1017.62 1017.57 1017.41 1017.20 1016.97 1016.79 1016.71 1016.74 1016.88 1017.10 1017.36 1017.60 1017.80 1017.95 1018.06 1018.14
1010.14 1010.67 1011.33 1012.08 1012.80 1013.41 1013.87 1014.16 1014.31 1014.40 1014.49 1014.64 1014.88 1015.20 1015.56 1015.91 1016.21 1016.41 1016.53 1016.59 1016.63 1016.71 1016.85 1017.05 1017.29 1017.51 1017.67 1017.72 1017.64 1017.45 1017.20 1016.94 1016.74 1016.64 1016.68 1016.84 1017.08 1017.36 1017.63 1017.85 1018.02 1018.15 1018.25
1010.01 1010.59 1011.30 1012.07 1012.81 1013.45 1013.93 1014.25 1014.45 1014.58 1014.71 1014.88 1015.13 1015.44 1015.76 1016.05 1016.28 1016.43 1016.51 1016.55 1016.60 1016.71 1016.89 1017.14 1017.41 1017.66 1017.82 1017.85 1017.75 1017.53 1017.25 1016.97 1016.76 1016.67 1016.72 1016.89 1017.15 1017.45 1017.73 1017.98 1018.16 1018.30 1018.41
1009.93 1010.54 1011.28 1012.07 1012.83 1013.48 1013.98 1014.34 1014.58 1014.77 1014.95 1015.16 1015.42 1015.72 1016.00 1016.25 1016.42 1016.52 1016.56 1016.59 1016.66 1016.79 1017.00 1017.28 1017.57 1017.82 1017.97 1017.99 1017.86 1017.61 1017.32 1017.03 1016.83 1016.76 1016.82 1017.02 1017.30 1017.61 1017.90 1018.15 1018.34 1018.48 1018.59
1009.92 1010.56 1011.31 1012.11 1012.86 1013.51 1014.03 1014.41 1014.70 1014.93 1015.16 1015.41 1015.69 1015.99 1016.25 1016.46 1016.59 1016.65 1016.67 1016.69 1016.76 1016.91 1017.14 1017.43 1017.72 1017.95 1018.08 1018.06 1017.90 1017.64 1017.33 1017.06 1016.88 1016.84 1016.95 1017.17 1017.47 1017.80 1018.10 1018.34 1018.52 1018.65 1018.75
1009.95 1010.61 1011.37 1012.16 1012.89 1013.52 1014.03 1014.42 1014.73 1015.01 1015.28 1015.57 1015.87 1016.17 1016.42 1016.61 1016.71 1016.75 1016.76 1016.78 1016.86 1017.01 1017.24 1017.52 1017.78 1017.98 1018.05 1017.99 1017.81 1017.54 1017.25 1017.01 1016.87 1016.88 1017.03 1017.30 1017.63 1017.96 1018.27 1018.50 1018.66 1018.77 1018.85
1010.00 1010.68 1011.43 1012.18 1012.88 1013.47 1013.94 1014.32 1014.64 1014.94 1015.25 1015.57 1015.89 1016.20 1016.45 1016.63 1016.73 1016.76 1016.77 1016.79 1016.87 1017.02 1017.24 1017.48 1017.70 1017.85 1017.88 1017.78 1017.57 1017.31 1017.04 1016.85 1016.77 1016.84 1017.05 1017.36 1017.72 1018.07 1018.37 1018.59 1018.73 1018.81 1018.86
1010.01 1010.71 1011.44 1012.15 1012.78 1013.31 1013.74 1014.09 1014.40 1014.71 1015.03 1015.38 1015.73 1016.05 1016.31 1016.50 1016.60 1016.64 1016.66 1016.69 1016.77 1016.91 1017.10 1017.31 1017.48 1017.58 1017.57 1017.44 1017.23 1016.98 1016.75 1016.61 1016.60 1016.74 1017.00 1017.35 1017.74 1018.09 1018.39 1018.59 1018.71 1018.77 1018.79
1009.97 1010.68 1011.39 1012.04 1012.60 1013.05 1013.42 1013.72 1014.01 1014.32 1014.65 1015.02 1015.39 1015.73 1016.02 1016.22 1016.34 1016.40 1016.43 1016.48 1016.57 1016.70 1016.87 1017.05 1017.18 1017.24 1017.20 1017.06 1016.85 1016.63 1016.45 1016.37 1016.41 1016.60 1016.90 1017.28 1017.67 1018.03 1018.32 1018.51 1018.61 1018.64 1018.64
1009.87 1010.59 1011.26 1011.84 1012.32 1012.69 1012.99 1013.26 1013.53 1013.83 1014.18 1014.57 1014.96 1015.33 1015.64 1015.86 1016.01 1016.09 1016.15 1016.22 1016.32 1016.45 1016.61 1016.77 1016.89 1016.93 1016.88 1016.75 1016.56 1016.38 1016.24 1016.20 1016.28 1016.49 1016.80 1017.18 1017.56 1017.90 1018.17 1018.35 1018.43 1018.46 1018.44
1009.75 1010.45 1011.07 1011.58 1011.98 1012.28 1012.53 1012.77 1013.03 1013.34 1013.71 1014.13 1014.55 1014.94 1015.27 1015.52 1015.69 1015.81 1015.90 1015.99 1016.11 1016.25 1016.42 1016.58 1016.69 1016.74 1016.71 1016.60 1016.45 1016.29 1016.18 1016.16 1016.25 1016.44 1016.73 1017.07 1017.41 1017.71 1017.95 1018.10 1018.19 1018.21 1018.20
1009.64 1010.31 1010.87 1011.31 1011.64 1011.89 1012.10 1012.33 1012.61 1012.95 1013.35 1013.80 1014.25 1014.67 1015.02 1015.29 1015.49 1015.63 1015.75 1015.87 1016.01 1016.19 1016.37 1016.54 1016.68 1016.75 1016.75 1016.67 1016.55 1016.43 1016.33 1016.30 1016.35 1016.49 1016.71 1016.96 1017.23 1017.47 1017.66 1017.80 1017.87 1017.90 1017.91
1009.57 1010.18 1010.68 1011.05 1011.33 1011.55 1011.77 1012.02 1012.34 1012.73 1013.19 1013.67 1014.15 1014.59 1014.96 1015.24 1015.46 1015.63 1015.77 1015.92 1016.09 1016.29 1016.50 1016.70 1016.87 1016.97 1017.00 1016.97 1016.88 1016.76 1016.65 1016.58 1016.57 1016.62 1016.72 1016.87 1017.03 1017.19 1017.33 1017.43 1017.51 1017.55 1017.59
1009.54 1010.10 1010.53 1010.85 1011.10 1011.33 1011.57 1011.88 1012.26 1012.72 1013.23 1013.75 1014.26 1014.71 1015.09 1015.38 1015.61 1015.79 1015.96 1016.13 1016.33 1016.55 1016.79 1017.02 1017.22 1017.35 1017.42 1017.41 1017.34 1017.22 1017.08 1016.96 1016.85 1016.79 1016.77 1016.79 1016.84 1016.90 1016.97 1017.04 1017.11 1017.17 1017.23
1009.56 1010.05 1010.42 1010.71 1010.96 1011.21 1011.51 1011.89 1012.35 1012.88 1013.45 1014.01 1014.54 1015.00 1015.37 1015.67 1015.90 1016.09 1016.27 1016.46 1016.68 1016.92 1017.18 1017.43 1017.65 1017.81 1017.90 1017.91 1017.85 1017.72 1017.55 1017.35 1017.16 1016.98 1016.83 1016.72 1016.65 1016.63 1016.63 1016.67 1016.73 1016.80 1016.88
1009.58 1010.02 1010.35 1010.63 1010.89 1011.19 1011.56 1012.03 1012.57 1013.17 1013.79 1014.38 1014.91 1015.36 1015.73 1016.02 1016.25 1016.45 1016.64 1016.85 1017.08 1017.34 1017.60 1017.86 1018.08 1018.26 1018.36 1018.38 1018.31 1018.17 1017.97 1017.72 1017.44 1017.17 1016.91 1016.70 1016.53 1016.42 1016.37 1016.37 1016.42 1016.49 1016.58
1009.59 1010.00 1010.31 1010.59 1010.88 1011.24 1011.69 1012.23 1012.85 1013.51 1014.16 1014.76 1015.29 1015.73 1016.08 1016.36 1016.59 1016.80 1017.00 1017.23 1017.47 1017.73 1017.99 1018.24 1018.46 1018.63 1018.73 1018.75 1018.68 1018.54 1018.32 1018.04 1017.72 1017.38 1017.05 1016.75 1016.51 1016.34 1016.24 1016.20 1016.23 1016.28 1016.36
1009.58 1009.98 1010.30 1010.60 1010.93 1011.35 1011.86 1012.47 1013.14 1013.83 1014.50 1015.10 1015.62 1016.04 1016.38 1016.65 1016.88 1017.10 1017.32 1017.56 1017.81 1018.07 1018.32 1018.55 1018.76 1018.91 1018.99 1019.01 1018.96 1018.82 1018.60 1018.32 1017.99 1017.63 1017.27 1016.93 1016.65 1016.43 1016.28 1016.21 1016.20 1016.22 1016.27
1009.57 1009.99 1010.34 1010.66 1011.04 1011.50 1012.06 1012.71 1013.41 1014.12 1014.78 1015.37 1015.87 1016.27 1016.59 1016.86 1017.11 1017.35 1017.59 1017.85 1018.11 1018.36 1018.59 1018.80 1018.97 1019.10 1019.17 1019.19 1019.15 1019.03 1018.85 1018.60 1018.30 1017.95 1017.59 1017.25 1016.95 1016.70 1016.51 1016.40 1016.33 1016.31 1016.30
1009.61 1010.08 1010.46 1010.82 1011.22 1011.72 1012.30 1012.97 1013.67 1014.37 1015.01 1015.57 1016.04 1016.43 1016.75 1017.03 1017.29 1017.55 1017.83 1018.10 1018.37 1018.61 1018.83 1019.01 1019.14 1019.24 1019.30 1019.32 1019.30 1019.22 1019.09 1018.89 1018.64 1018.34 1018.02 1017.69 1017.38 1017.11 1016.88 1016.71 1016.59 1016.49 1016.41
1009.76 1010.28 1010.69 1011.08 1011.50 1012.00 1012.59 1013.25 1013.94 1014.61 1015.22 1015.75 1016.19 1016.56 1016.88 1017.17 1017.45 1017.75 1018.04 1018.34 1018.61 1018.84 1019.03 1019.18 1019.28 1019.35 1019.40 1019.42 1019.42 1019.39 1019.31 1019.19 1019.00 1018.76 1018.48 1018.18 1017.87 1017.57 1017.31 1017.07 1016.87 1016.69 1016.53
1010.06 1010.62 1011.06 1011.46 1011.89 1012.38 1012.96 1013.59 1014.24 1014.88 1015.45 1015.95 1016.36 1016.71 1017.02 1017.32 1017.63 1017.94 1018.26 1018.56 1018.83 1019.05 1019.21 1019.32 1019.39 1019.43 1019.46 1019.48 1019.50 1019.52 1019.50 1019.44 1019.32 1019.14 1018.90 1018.62 1018.31 1017.99 1017.67 1017.37 1017.09 1016.82 1016.57
1010.53 1011.11 1011.55 1011.95 1012.36 1012.84 1013.38 1013.98 1014.60 1015.19 1015.72 1016.18 1016.57 1016.90 1017.20 1017.50 1017.80 1018.12 1018.44 1018.74 1018.99 1019.19 1019.32 1019.40 1019.43 1019.44 1019.45 1019.48 1019.52 1019.56 1019.59 1019.59 1019.52 1019.39 1019.18 1018.91 1018.59 1018.23 1017.87 1017.50 1017.15 1016.80 1016.47
Thickness
5808 5800 5794 5790 5786 5784 5783 5781 5778 5775 5772 5769 5767 5765 5763 5761 5760 5758 5757 5756 5755 5754 5754 5753 5751 5749 5749 5749 5751 5751 5752 5752 5753 5754 5754 5753 5753 5753 5753 5753 5753 5753 5751
5807 5796 5790 5785 5780 5777 5776 5775 5771 5769 5767 5764 5762 5760 5758 5757 5755 5754 5753 5753 5752 5750 5749 5748 5747 5745 5745 5746 5747 5748 5748 5749 5751 5751 5751 5750 5749 5749 5749 5749 5750 5750 5748
5802 5793 5785 5780 5776 5772 5770 5768 5765 5763 5762 5760 5758 5757 5755 5754 5752 5749 5749 5749 5749 5747 5745 5744 5743 5742 5742 5743 5744 5745 5746 5747 5748 5749 5749 5749 5746 5745 5744 5744 5744 5745 5744
5800 5790 5782 5776 5771 5767 5765 5762 5759 5758 5758 5757 5755 5754 5752 5750 5749 5746 5746 5745 5745 5744 5742 5740 5739 5738 5739 5739 5740 5741 5743 5744 5745 5746 5748 5750 5744 5741 5741 5740 5740 5741 5741
5798 5788 5778 5773 5768 5763 5760 5757 5756 5755 5755 5753 5752 5750 5749 5746 5744 5743 5742 5742 5741 5740 5738 5737 5737 5736 5735 5735 5736 5736 5738 5740 5742 5743 5744 5745 5742 5739 5738 5737 5736 5735 5735
5795 5785 5776 5770 5765 5760 5757 5755 5754 5753 5751 5750 5748 5747 5745 5742 5741 5741 5741 5740 5739 5737 5736 5735 5734 5732 5731 5730 5731 5732 5734 5736 5738 5741 5743 5743 5739 5736 5735 5733 5732 5731 5730
5796 5785 5774 5768 5763 5759 5756 5753 5751 5749 5748 5747 5745 5744 5742 5740 5738 5738 5738 5738 5737 5735 5733 5731 5730 5728 5726 5726 5727 5728 5729 5732 5735 5737 5739 5738 5734 5730 5728 5726 5725 5724 5724
5797 5785 5773 5766 5762 5757 5753 5751 5748 5746 5744 5743 5742 5740 5738 5737 5736 5735 5734 5734 5733 5731 5729 5727 5726 5725 5723 5723 5723 5725 5726 5727 5731 5733 5732 5730 5725 5722 5720 5719 5718 5717 5716
5797 5783 5772 5765 5760 5756 5753 5750 5747 5744 5741 5738 5737 5736 5735 5734 5733 5732 5731 5730 5728 5726 5724 5722 5721 5721 5720 5720 5720 5722 5724 5725 5726 5728 5727 5723 5717 5715 5713 5712 5712 5710 5710
5795 5785 5776 5769 5763 5757 5752 5748 5744 5740 5737 5735 5734 5734 5733 5731 5730 5729 5727 5726 5724 5722 5720 5719 5718 5717 5717 5717 5718 5720 5721 5721 5723 5723 5720 5714 5710 5708 5706 5705 5704 5703 5703
5791 5785 5779 5772 5765 5759 5753 5746 5741 5738 5735 5734 5732 5731 5729 5728 5727 5725 5725 5723 5721 5719 5718 5716 5715 5715 5714 5714 5714 5715 5716 5718 5721 5719 5714 5709 5706 5703 5701 5700 5698 5698 5697
5786 5783 5779 5774 5767 5761 5756 5747 5742 5738 5735 5733 5732 5729 5726 5724 5724 5724 5722 5720 5717 5716 5714 5713 5713 5713 5712 5711 5710 5711 5712 5715 5716 5715 5711 5707 5703 5700 5697 5695 5694 5692 5691
5789 5784 5782 5776 5771 5762 5760 5752 5748 5744 5738 5735 5732 5729 5725 5723 5722 5722 5719 5716 5714 5713 5711 5711 5710 5710 5711 5711 5709 5709 5711 5710 5710 5708 5704 5703 5699 5696 5693 5690 5687 5686 5685
5791 5785 5782 5779 5773 5767 5765 5760 5755 5750 5742 5738 5733 5729 5726 5724 5722 5721 5718 5715 5714 5713 5714 5713 5711 5712 5709 5707 5707 5707 5706 5705 5704 5700 5695 5696 5695 5692 5688 5685 5682 5679 5678
5791 5787 5785 5780 5773 5767 5763 5760 5757 5751 5745 5738 5733 5729 5726 5722 5719 5719 5718 5714 5712 5711 5710 5709 5707 5706 5703 5703 5703 5702 5701 5698 5696 5694 5689 5688 5686 5684 5681 5677 5675 5672 5671
5789 5785 5783 5777 5771 5766 5760 5757 5754 5749 5743 5739 5734 5729 5724 5720 5715 5714 5712 5708 5705 5704 5703 5701 5700 5698 5697 5695 5693 5692 5691 5688 5686 5684 5682 5678 5676 5674 5672 5669 5667 5665 5662
5788 5784 5780 5776 5770 5764 5759 5755 5752 5749 5742 5738 5733 5727 5722 5718 5714 5711 5707 5702 5699 5700 5698 5695 5691 5689 5688 5686 5684 5683 5681 5679 5677 5675 5673 5671 5667 5665 5663 5661 5659 5656 5653
5788 5782 5778 5777 5770 5762 5759 5755 5751 5747 5741 5735 5730 5724 5719 5715 5711 5706 5702 5696 5693 5693 5690 5685 5681 5678 5675 5674 5672 5672 5671 5669 5668 5667 5665 5663 5660 5658 5655 5651 5648 5646 5643
5785 5780 5776 5777 5770 5762 5757 5751 5747 5742 5736 5730 5724 5718 5713 5709 5705 5701 5697 5690 5687 5683 5678 5673 5668 5665 5662 5660 5660 5661 5660 5659 5657 5657 5655 5654 5652 5649 5643 5639 5637 5634 5631
5780 5776 5775 5775 5769 5762 5755 5747 5741 5735 5730 5723 5716 5711 5706 5701 5697 5694 5689 5681 5677 5672 5667 5662 5658 5654 5651 5649 5650 5649 5647 5646 5645 5643 5641 5641 5638 5634 5630 5627 5623 5621 5618
5771 5768 5768 5767 5765 5758 5750 5741 5733 5726 5721 5715 5709 5702 5697 5692 5686 5683 5679 5673 5667 5662 5657 5655 5650 5644 5641 5639 5636 5635 5636 5635 5633 5631 5629 5627 5624 5620 5616 5612 5607 5604 5601
5762 5759 5760 5760 5757 5752 5745 5738 5730 5721 5714 5706 5698 5692 5687 5683 5678 5673 5667 5663 5658 5652 5649 5646 5640 5633 5628 5625 5620 5618 5615 5616 5618 5614 5610 5608 5604 5601 5598 5595 5591 5587 5584
5755 5751 5751 5750 5746 5742 5737 5730 5719 5710 5702 5693 5686 5681 5677 5673 5668 5662 5657 5652 5645 5640 5636 5630 5625 5619 5611 5608 5607 5603 5597 5595 5592 5594 5591 5588 5585 5581 5578 5575 5572 5570 5567
5749 5746 5743 5739 5734 5730 5726 5719 5709 5699 5692 5685 5678 5671 5667 5663 5657 5652 5646 5639 5632 5627 5623 5616 5608 5602 5598 5593 5590 5588 5584 5579 5573 5572 5570 5570 5568 5564 5561 5559 5556 5553 5551
5741 5736 5733 5728 5722 5718 5714 5709 5702 5693 5683 5675 5668 5660 5657 5651 5646 5640 5633 5625 5618 5614 5609 5602 5595 5588 5583 5578 5573 5569 5565 5562 5559 5555 5553 5551 5550 5548 5545 5542 5540 5538 5536
5730 5725 5720 5714 5708 5704 5700 5695 5689 5680 5672 5665 5657 5651 5645 5640 5635 5628 5620 5612 5606 5600 5595 5590 5582 5577 5571 5563 5556 5552 5547 5543 5539 5536 5535 5535 5533 5532 5529 5526 5524 5524 5524